Location: Bannatyne
(13.0833°N, 59.5333°W)
Time: 20:46:46
(UTC+00:00)

Cosmos 1777 Rocket - Pass Details

Date: 18 October 2019
Orbit: 759 x 775 km, 74.0° (Epoch: 17 November)

Event Time Altitude Azimuth Distance (km) Brightness Sun altitude
Rises 23:17:00 0° 347° (NNW) 3,209 7.3 -24.8°
Reaches altitude 10° 23:19:22 10° 348° (NNW) 2,282 6.5 -25.4°
Enters shadow 23:23:58 71° 360° (N) 801 3.9 -26.5°
